Weather observations for the past three days for
Cody
Metric (Imperial)
Date Time (mdt) Wind (kph) Vis. (km) Weather Sky Cond. Temperature (ºC) Relative Humidity Wind Chill (°C) Heat Index (°C) Pressure Precipitation (cm)
Air Dwpt 6 hour altimeter (cm) sea level (mb) 1 hr 3 hr 6 hr
Max. Min.
15 17:56 SW 20 G 35 16.09 Fair CLR 28.3 6.7 28.9 25 25% 27 76.38 1011.7
15 16:56 SW 19 G 39 16.09 Fair CLR 28.3 7.2 26% 27 76.43 1012.3
15 15:56 W 24 G 37 16.09 Fair CLR 26.1 6.1 28% 26 76.5 1014.0
15 14:56 Vrbl 9 16.09 A Few Clouds FEW100 27.8 6.1 25% 27 76.56 1014.0
15 13:56 SW 15 14.48 A Few Clouds FEW120 28.3 7.8 27% 27 76.58 1014.6
15 12:56 NE 9 16.09 Mostly Cloudy BKN100 25 10 39% 26 76.66 1015.9
15 11:56 NE 6 16.09 A Few Clouds FEW120 26.7 7.8 26.7 20 30% 26 76.63 1015.5
15 10:56 NE 11 16.09 Overcast OVC120 25 10.6 40% 26 76.68 1016.5
15 09:56 NE 9 16.09 Mostly Cloudy BKN120 24.4 9.4 39% 25 76.68 1016.2
15 08:56 Calm 16.09 Fair CLR 21.7 10.6 49% 76.68 1016.6
15 07:56 NE 6 16.09 Fair CLR 20 11.1 57% 76.66 1016.6
15 06:56 SW 9 16.09 Fair CLR 22.8 8.9 41% 76.61 1014.8
15 05:56 W 11 16.09 Fair CLR 21.1 8.9 22.2 18.9 46% 76.61 1014.6
15 04:56 W 13 16.09 Fair CLR 22.2 8.3 41% 76.56 1013.5
15 03:56 SW 9 16.09 Fair CLR 20.6 9.4 49% 76.53 1013.3
15 02:56 W 15 16.09 Fair CLR 22.2 9.4 44% 76.5 1012.6
15 01:56 Vrbl 7 16.09 Fair CLR 21.7 10 47% 76.56 1013.3
15 00:56 W 9 16.09 Fair CLR 21.7 10.6 49% 76.53 1013.3
14 23:56 SW 9 16.09 Fair CLR 21.7 10.6 29.4 19.4 49% 76.58 1013.8
14 22:56 SW 17 G 28 16.09 Mostly Cloudy SCT100 BKN120 20 12.2 61% 76.61 1014.7
14 21:56 W 22 G 31 16.09 Light Rain BKN110 22.8 10 44% 76.68 1015.8
14 20:56 NW 13 G 26 16.09 A Few Clouds FEW110 23.3 9.4 41% 76.56 1015.0
14 19:56 N 13 16.09 Light Rain FEW047 BKN090 OVC110 23.3 10.6 45% 76.53 1014.9
14 18:56 SW 15 G 33 16.09 Thunderstorm in Vicinity Light Rain FEW060 OVC100 27.8 7.8 28% 27 76.5 1014.0
14 17:56 NE 11 16.09 Fair CLR 29.4 7.2 35.6 29.4 25% 28 76.35 1012.0
14 16:56 SW 19 G 30 16.09 Fair CLR 32.2 3.9 17% 30 76.35 1011.7
14 15:56 S 31 G 41 16.09 Fair CLR 33.3 3.3 15% 31 76.38 1011.4
14 14:56 SW 17 16.09 Fair CLR 33.9 2.2 13% 31 76.4 1011.7
14 13:56 SW 24 G 35 16.09 Fair CLR 33.9 1.1 12% 31 76.43 1011.8
14 12:56 SW 19 G 30 16.09 Fair CLR 32.8 2.2 14% 30 76.5 1012.9
14 11:56 W 13 16.09 Fair CLR 32.8 3.9 32.8 16.1 16% 31 76.56 1013.2
14 10:56 S 20 16.09 Fair CLR 31.1 3.3 17% 29 76.58 1014.3
14 09:56 Calm 16.09 Fair CLR 28.3 7.8 27% 27 76.63 1014.9
14 08:56 Calm 16.09 Fair CLR 22.2 10 46% 76.63 1015.5
14 07:56 S 13 16.09 Fair CLR 19.4 7.8 47% 76.63 1015.9
14 06:56 Calm 16.09 Fair CLR 17.8 6.1 46% 76.63 1015.9
14 05:56 S 7 16.09 Fair CLR 16.7 5 22.2 15 46% 76.61 1015.1
14 04:56 Calm 16.09 Fair CLR 16.7 6.1 50% 76.58 1014.4
14 03:56 SE 7 16.09 Fair CLR 17.2 6.7 50% 76.56 1014.1
14 02:56 Calm 16.09 Fair CLR 17.8 7.8 52% 76.53 1013.7
14 01:56 SW 7 16.09 Fair CLR 19.4 7.8 47% 76.53 1013.3
14 00:56 SW 17 16.09 Fair CLR 20 7.8 45% 76.53 1013.4
13 23:56 S 19 16.09 Fair CLR 22.2 6.7 31.1 20 37% 76.53 1013.6 0.1
13 22:56 SE 11 16.09 Fair CLR 20.6 11.1 55% 76.56 1014.3
13 21:56 Calm 16.09 Fair CLR 22.2 11.1 50% 76.56 1014.6
13 20:56 W 7 16.09 Fair CLR 26.7 8.9 33% 26 76.5 1013.6 0.1
13 19:56 W 7 16.09 Fair CLR 27.2 11.7 38% 27 76.5 1013.8 0.03
13 18:56 E 15 G 39 16.09 Thunderstorm in Vicinity Light Rain FEW023 SCT050 BKN110 26.1 10 36% 26 76.48 1014.0 0.08
13 17:56 NE 11 16.09 Fair CLR 31.1 8.3 34.4 30 24% 29 76.45 1013.2
13 16:56 N 20 16.09 Fair CLR 32.8 7.2 20% 31 76.45 1012.7
13 15:56 NE 15 16.09 Fair CLR 32.2 7.8 22% 30 76.48 1013.1
13 14:56 N 20 16.09 Fair CLR 32.8 7.2 20% 31 76.5 1013.0
13 13:56 Vrbl 11 16.09 Fair CLR 33.9 6.7 18% 32 76.53 1013.6
13 12:56 NE 17 16.09 Fair CLR 31.7 8.9 24% 30 76.58 1014.2
13 11:56 Vrbl 11 12.87 Fair CLR 30 6.1 30 15.6 22% 28 76.66 1015.4
13 10:56 SE 7 16.09 Fair CLR 27.8 7.2 27% 27 76.68 1015.9
13 09:56 S 11 16.09 Fair CLR 25 7.2 32% 25 76.73 1016.7
13 08:56 S 13 16.09 Fair CLR 23.3 7.8 37% 76.76 1017.2
13 07:56 S 7 16.09 Fair CLR 20.6 7.8 44% 76.76 1016.9
13 06:56 Calm 16.09 Fair CLR 16.7 7.2 54% 76.73 1016.8
13 05:56 Calm 16.09 Fair CLR 15.6 7.8 20.6 15 60% 76.71 1016.3
13 04:56 S 9 16.09 Fair CLR 17.8 7.8 52% 76.63 1015.2
13 03:56 SW 9 16.09 Fair CLR 18.9 8.3 50% 76.63 1014.8
13 02:56 SW 11 16.09 Fair CLR 19.4 8.9 51% 76.63 1014.7
13 01:56 S 9 16.09 Fair CLR 18.3 9.4 56% 76.63 1015.1
13 00:56 SW 7 16.09 Fair CLR 20 8.3 47% 76.66 1015.4
12 23:56 Calm 16.09 Fair CLR 19.4 9.4 33.3 19.4 53% 76.68 1015.8
12 22:56 NW 9 16.09 Fair CLR 21.7 8.3 42% 76.66 1015.3
12 21:56 NE 11 16.09 Light Rain FEW090 23.9 7.8 36% 25 76.63 1014.7
12 20:56 NW 22 16.09 Fair CLR 24.4 7.2 33% 25 76.58 1014.7
12 19:56 NW 11 16.09 Fair CLR 29.4 4.4 20% 28 76.5 1013.1
12 18:56 NE 19 16.09 Fair CLR 31.7 5 19% 30 76.43 1011.9
Date Time (mdt) Wind (kph) Vis. (km) Weather Sky Cond. Air Dwpt Max. Min. Relative Humidity Wind Chill (°C) Heat Index (°C) altimeter (cm) sea level (mb) 1 hr 3 hr 6 hr
6 hour
Temperature (ºC) Pressure Precipitation (cm)